Regional Weather Roundup
Issued by NWS

Home | Current Version | Previous Version | Graphics & Text | Print | Product List | Glossary On
Versions: 1 2 3 4 5 6 7 8 9 10 11 12 13 14 15 16 17 18 19 20 21 22 23 24 25 26 27 28
000
ASUS45 KBOI 130110
RWRID

IDAHO REGIONAL WEATHER ROUNDUP
NATIONAL WEATHER SERVICE BOISE ID
600 PM MST TUE DEC 12 2017

NOTE: "FAIR" INDICATES FEW OR NO CLOUDS BELOW 12000 FEET
WITH NO SIGNIFICANT WEATHER AND/OR OBSTRUCTIONS TO VISIBILITY

IDZ012-014-130200-
SOUTHWEST IDAHO


CITY           SKY/WX    TMP DP  RH WIND       PRES   REMARKS
BOISE          CLOUDY    23  21  92 NW6       30.55S FOG     WCI  16
CALDWELL       NOT AVBL
MOUNTAIN HOME  FOG       22  22 100 CALM      30.54F VSB 3/4
$$

IDZ016-017-130200-
SOUTHCENTRAL IDAHO


CITY           SKY/WX    TMP DP  RH WIND       PRES   REMARKS
BURLEY         FOG       23  19  85 W6        30.47R VSB 1/2 WCI  16
JEROME         FOG       23  19  85 W7        30.47F VSB 1/4 WCI  15
TWIN FALLS     FOG       21  19  92 SW7       30.47F VSB 1/4 WCI  12
$$

IDZ019>023-130200-
SOUTHEAST IDAHO


CITY           SKY/WX    TMP DP  RH WIND       PRES   REMARKS
IDAHO FALLS    CLOUDY    17  14  88 CALM      30.43R
POCATELLO      CLOUDY    21  18  88 CALM      30.44R
REXBURG        CLOUDY    22  16  78 CALM      30.42R
$$

IDZ006-010-011-018-031-032-130200-
CENTRAL IDAHO MOUNTAINS


CITY           SKY/WX    TMP DP  RH WIND       PRES   REMARKS
MCCALL         MOCLDY    22  15  75 CALM      30.40F
HAILEY         CLEAR     30  21  69 CALM      30.39F
STANLEY          N/A     15  12  88 S5        30.42S WCI   8
SALMON         CLOUDY    15  13  91 CALM      30.53S
CHALLIS        MOCLDY    22  13  68 NW5       30.42R WCI  16
$$

IDZ002-004-006-007-026-130200-
NORTHERN IDAHO


CITY           SKY/WX    TMP DP  RH WIND       PRES   REMARKS
LEWISTON       CLOUDY    30  24  78 SW5       30.53R WCI  25
LOWELL           N/A     32  27  81 CALM      30.51S
COEUR D`ALENE  CLOUDY    27  24  89 CALM      30.49S
MULLAN PASS    CLOUDY    29  11  47 VRB3      30.34R
$$




USA.gov is the U.S. government's official web portal to all federal, state and local government web resources and services.